Notices

What's New in latest Release from April 7th, 2021:

- Updated Glossary, including Speed of Maximum Gust, and Total Hourly Precipitation

- Updated national and regional climate services offices contacts and prices information

- Addition of station inventory lists for 1981-2010, 1971-2000, and 1961-1990 Normals.

If you haven't already, please take our survey and provide feedback about our website: https://eccc.sondage-survey.ca/f/LanguageSelection.aspx?s=442ca660-fcf1-47c0-95a9-59707d6fd709

Hourly Data Report for January 12, 2021

CARBERRY CS
MANITOBA
Current Station Operator: ECCC - MSC

49°54'20.900" N
99°21'26.800" W
383.50 m
5010547
71170
WZE

Download Data

Hourly Data (January 2021)
Hourly Data Report for January 12, 2021
TIME
LST
Temp Definition
°C
Dew Point Definition
°C
Rel Hum Definition
%
Precip. Amount Definition
mm

Wind Dir Definition
10's deg

Wind Spd Definition
km/h
Visibility Definition
km
Stn Press Definition
kPa
Hmdx Definition


Wind Chill Definition


Weather Definition


00:00 -6.8 -9.3 83 0.0 26 14   96.48   -13 LegendNANA
01:00 -7.5 -9.8 84 0.0 23 6   96.43   -11 LegendNANA
02:00 -7.9 -9.5 88 0.0 23 8   96.38   -12 LegendNANA
03:00 -7.5 -9.0 89 0.0 25 13   96.37   -13 LegendNANA
04:00 -7.9 -9.3 90 0.0 25 10   96.32   -13 LegendNANA
05:00 -8.4 -9.2 94 0.0 26 16   96.30   -15 LegendNANA
06:00 -8.7 -9.6 93 0.0 24 10   96.25   -14 LegendNANA
07:00 -7.9 -9.2 91 0.0 24 13   96.20   -14 LegendNANA
08:00 -7.5 -8.9 90 0.0 25 10   96.15   -12 LegendNANA
09:00 -7.6 -9.2 88 0.0 24 8   96.07   -12 LegendNANA
10:00 -6.8 -9.2 83 0.0 26 14   96.13   -13 LegendNANA
11:00 -5.3 -7.3 86 0.0 26 24   96.18   -13 LegendNANA
12:00 -3.4 -5.9 83 0.0 27 28   96.14   -11 LegendNANA
13:00 -2.3 -6.0 76 0.0 26 30   96.10   -9 LegendNANA
14:00 -2.1 -6.1 74 0.0 26 25   96.07   -9 LegendNANA
15:00 -1.2 -6.0 70 0.0 25 21   96.10   -7 LegendNANA
16:00 -1.7 -5.8 73 0.0 26 27   96.10   -8 LegendNANA
17:00 -2.5 -5.7 78 0.0 26 25   96.15   -9 LegendNANA
18:00 -2.4 -5.4 79 0.0 25 12   96.16   -7 LegendNANA
19:00 -3.7 -6.1 83 0.0 25 9   96.17   -7 LegendNANA
20:00 -4.9 -7.3 83 0.0 26 17   96.13   -11 LegendNANA
21:00 -3.9 -6.1 85 0.0 25 14   96.10   -9 LegendNANA
22:00 -3.9 -6.4 82 0.0 24 14   96.06   -9 LegendNANA
23:00 -5.2 -7.5 84 0.0 21 6   96.05   -8 LegendNANA

Notes on Data Quality.

Legend

  • E = Estimated
  • M = Missing
  • NA = Not Available*
  • [empty] = Indicates an unobserved value
Date modified: